Location: Peterborough
(44.3091°N, 78.3197°W)
Time: 16:58:03
(UTC-04:00)

Explorer 7 - Pass Details

Date: 31 March 2023
Orbit: 477 x 653 km, 50.3° (Epoch: 04 June)

Event Time Altitude Azimuth Distance (km) Brightness Sun altitude
Rises 18:07:26 0° 278° (W) 2,913 12.0 15.5°
Reaches altitude 10° 18:09:56 10° 287° (WNW) 1,979 11.1 15.1°
Maximum altitude 18:14:10 38° 355° (N) 921 8.1 14.3°
Drops below altitude 10° 18:18:12 10° 64° (ENE) 1,874 9.0 13.6°
Sets 18:20:31 0° 73° (ENE) 2,737 9.7 13.2°
